{"data":{"norad_id":59741,"epoch":"2026-09-21T00:55:16.350816Z","epoch_age_seconds":124793,"freshness":"FRESH","line1":"1 59741U 24090M   26264.03838369  .00000705  00000+0  35149-4 0  9998","line2":"2 59741  43.0034 160.4850 0001179 278.1446  81.9272 15.27578841133314","mean_motion":15.27578841,"eccentricity":0.0001179,"inclination_deg":43.0034,"raan_deg":160.485,"arg_perigee_deg":278.1446,"mean_anomaly_deg":81.9272,"bstar":3.5149e-5,"rev_number":13331,"period_min":94.266820235434,"perigee_km":482.2436322549,"apogee_km":483.86150075469,"semimajor_km":6861.1895665048,"source":"CELESTRAK","updated_at":"2026-09-22T09:00:49.063828Z"}}